CW4438 Weather Reports


Display with metric or nautical units.
time (UTC)temp
F
wind
direction
speed
MPH
gust
MPH
rain 1hr
in
rain 24hr
in
rain mn
in
humidity
%
barometer
mb
20260906191001 101 350 2.0 14.0 0.00 0.00 0.00 37 1014.1
20260906185959 100 276 1.0 4.0 0.00 0.00 0.00 35 1013.8
20260906185459 100 60 1.0 3.0 0.00 0.00 0.00 36 1013.8
20260906184958 100 209 1.0 6.0 0.00 0.00 0.00 37 1013.5
20260906184458 101 234 2.0 6.0 0.00 0.00 0.00 36 1013.6
20260906183958 101 290 1.0 4.0 0.00 0.00 0.00 36 1013.6
20260906182958 103 166 1.0 4.0 0.00 0.00 0.00 33 1013.9
20260906182459 103 17 1.0 4.0 0.00 0.00 0.00 32 1013.8
20260906181949 104 284 2.0 4.0 0.00 0.00 0.00 33 1013.9
20260906181436 104 70 2.0 5.0 0.00 0.00 0.00 33 1013.9
20260906180931 105 109 2.0 5.0 0.00 0.00 0.00 32 1013.9
20260906180430 104 316 2.0 5.0 0.00 0.00 0.00 34 1013.9
20260906175931 104 355 1.0 5.0 0.00 0.00 0.00 34 1014.1
20260906175431 104 42 2.0 4.0 0.00 0.00 0.00 32 1014.2
20260906174930 104 220 2.0 6.0 0.00 0.00 0.00 33 1014.2
20260906174431 103 300 2.0 6.0 0.00 0.00 0.00 35 1014.3
20260906173430 103 217 2.0 4.0 0.00 0.00 0.00 36 1014.6
20260906172931 103 82 2.0 4.0 0.00 0.00 0.00 36 1014.8
20260906172432 102 200 2.0 5.0 0.00 0.00 0.00 35 1014.9
20260906171931 102 238 1.0 5.0 0.00 0.00 0.00 36 1014.9
20260906171431 102 206 2.0 4.0 0.00 0.00 0.00 36 1015.0
20260906170431 101 263 1.0 5.0 0.00 0.00 0.00 38 1015.2
20260906165429 101 150 1.0 4.0 0.00 0.00 0.00 38 1015.3
20260906164917 101 186 2.0 4.0 0.00 0.00 0.00 39 1015.4
20260906164411 101 74 2.0 4.0 0.00 0.00 0.00 38 1015.5
20260906163911 101 211 2.0 4.0 0.00 0.00 0.00 38 1015.5
20260906163411 101 32 1.0 4.0 0.00 0.00 0.00 38 1015.5
20260906162411 100 345 2.0 4.0 0.00 0.00 0.00 39 1015.6
20260906161411 99 71 1.0 4.0 0.00 0.00 0.00 41 1015.6
20260906160910 99 207 1.0 3.0 0.00 0.00 0.00 43 1015.6
20260906160405 98 214 1.0 3.0 0.00 0.00 0.00 42 1015.7
20260906155902 98 36 1.0 2.0 0.00 0.00 0.00 45 1015.7
20260906155402 96 81 1.0 4.0 0.00 0.00 0.00 46 1015.7
20260906154903 96 83 2.0 4.0 0.00 0.00 0.00 45 1015.7
20260906154403 96 26 2.0 4.0 0.00 0.00 0.00 48 1015.7
20260906153903 96 334 1.0 3.0 0.00 0.00 0.00 46 1015.7
20260906153403 95 355 1.0 3.0 0.00 0.00 0.00 47 1015.7
20260906152401 94 251 1.0 3.0 0.00 0.00 0.00 50 1015.7
20260906151900 93 260 1.0 3.0 0.00 0.00 0.00 49 1015.6
20260906151400 93 344 1.0 3.0 0.00 0.00 0.00 50 1015.6
20260906150901 93 304 1.0 3.0 0.00 0.00 0.00 50 1015.6
20260906145902 92 312 1.0 4.0 0.00 0.00 0.00 52 1015.7
20260906145401 92 178 1.0 4.0 0.00 0.00 0.00 52 1015.6
20260906144900 91 211 2.0 5.0 0.00 0.00 0.00 53 1015.6
20260906144401 91 281 2.0 5.0 0.00 0.00 0.00 53 1015.6
20260906143902 90 192 1.0 5.0 0.00 0.00 0.00 54 1015.6
20260906143400 89 151 1.0 5.0 0.00 0.00 0.00 57 1015.6
20260906142401 88 267 1.0 3.0 0.00 0.00 0.00 59 1015.7
20260906141902 87 269 1.0 4.0 0.00 0.00 0.00 60 1015.7
20260906141401 86 242 1.0 4.0 0.00 0.00 0.00 63 1015.7
20260906140903 85 225 1.0 4.0 0.00 0.00 0.00 64 1015.7
20260906140402 83 202 1.0 4.0 0.00 0.00 0.00 66 1015.6
20260906135401 81 206 1.0 4.0 0.00 0.00 0.00 71 1015.5
20260906134902 80 234 1.0 2.0 0.00 0.00 0.00 73 1015.5
20260906134401 79 185 0.0 3.0 0.00 0.00 0.00 75 1015.5
20260906133901 79 209 0.0 3.0 0.00 0.00 0.00 76 1015.5
20260906132900 78 167 0.0 2.0 0.00 0.00 0.00 78 1015.5
20260906132355 77 132 0.0 1.0 0.00 0.00 0.00 79 1015.4
20260906131850 76 155 0.0 1.0 0.00 0.00 0.00 81 1015.4
20260906130849 75 155 0.0 0.0 0.00 0.00 0.00 85 1015.3
20260906130349 75 155 0.0 0.0 0.00 0.00 0.00 86 1015.2
20260906125847 74 155 0.0 1.0 0.00 0.00 0.00 87 1015.2
20260906125345 74 155 0.0 1.0 0.00 0.00 0.00 87 1015.2
20260906124341 73 155 0.0 0.0 0.00 0.00 0.00 87 1015.2
20260906123839 73 155 0.0 0.0 0.00 0.00 0.00 87 1015.2
20260906123336 73 155 0.0 0.0 0.00 0.00 0.00 87 1015.0
20260906122834 73 155 0.0 1.0 0.00 0.00 0.00 87 1014.9
20260906122334 73 155 0.0 1.0 0.00 0.00 0.00 87 1014.8
20260906121833 73 155 0.0 0.0 0.00 0.00 0.00 87 1014.9
20260906121329 73 155 0.0 0.0 0.00 0.00 0.00 87 1014.8
20260906120826 73 155 0.0 0.0 0.00 0.00 0.00 87 1014.8
20260906120324 73 155 0.0 0.0 0.00 0.00 0.00 87 1014.7
20260906115819 73 155 0.0 0.0 0.00 0.00 0.00 86 1014.7
20260906115314 73 155 0.0 1.0 0.00 0.00 0.00 86 1014.7
20260906114810 73 155 0.0 1.0 0.00 0.00 0.00 86 1014.7
20260906114310 73 155 0.0 0.0 0.00 0.00 0.00 86 1014.7
20260906113308 73 155 0.0 0.0 0.00 0.00 0.00 86 1014.6
20260906112311 73 155 0.0 0.0 0.00 0.00 0.00 85 1014.6
20260906111809 73 155 0.0 1.0 0.00 0.00 0.00 85 1014.5
20260906111307 73 155 0.0 1.0 0.00 0.00 0.00 85 1014.5
20260906110805 73 155 0.0 1.0 0.00 0.00 0.00 85 1014.5
20260906110302 73 155 0.0 1.0 0.00 0.00 0.00 85 1014.5
20260906105803 73 155 0.0 0.0 0.00 0.00 0.00 85 1014.5
20260906105305 73 155 0.0 1.0 0.00 0.00 0.00 85 1014.4
20260906104801 73 155 0.0 1.0 0.00 0.00 0.00 85 1014.4
20260906104303 73 155 0.0 1.0 0.00 0.00 0.00 85 1014.4
20260906103802 73 155 0.0 1.0 0.00 0.00 0.00 85 1014.4
20260906103303 73 175 0.0 1.0 0.00 0.00 0.00 85 1014.5
20260906102801 73 175 0.0 3.0 0.00 0.00 0.00 84 1014.4
20260906102300 73 192 0.0 3.0 0.00 0.00 0.00 84 1014.5
20260906101801 73 59 0.0 0.0 0.00 0.00 0.00 84 1014.3
20260906101301 73 59 0.0 0.0 0.00 0.00 0.00 84 1014.3
20260906100801 73 59 0.0 0.0 0.00 0.00 0.00 83 1014.2
20260906100301 73 59 0.0 0.0 0.00 0.00 0.00 83 1014.2
20260906095305 73 59 0.0 0.0 0.00 0.00 0.00 83 1014.2
20260906094301 73 59 0.0 0.0 0.00 0.00 0.00 83 1014.1
20260906093301 74 59 0.0 0.0 0.00 0.00 0.00 82 1014.1
20260906092801 74 59 0.0 0.0 0.00 0.00 0.00 81 1014.0
20260906092305 74 59 0.0 0.0 0.00 0.00 0.00 82 1013.9
20260906091802 74 59 0.0 0.0 0.00 0.00 0.00 82 1013.9
20260906091302 74 59 0.0 0.0 0.00 0.00 0.00 82 1013.9
20260906090301 74 59 0.0 0.0 0.00 0.00 0.00 82 1013.8
20260906085801 74 59 0.0 0.0 0.00 0.00 0.00 82 1013.8
20260906085301 74 59 0.0 0.0 0.00 0.00 0.00 81 1013.8
20260906084801 74 59 0.0 0.0 0.00 0.00 0.00 81 1013.6
20260906084301 74 59 0.0 0.0 0.00 0.00 0.00 81 1013.6
20260906083801 74 59 0.0 0.0 0.00 0.00 0.00 81 1013.6
20260906083301 74 59 0.0 0.0 0.00 0.00 0.00 81 1013.5
20260906082801 74 59 0.0 0.0 0.00 0.00 0.00 81 1013.4
20260906082305 74 59 0.0 1.0 0.00 0.00 0.00 80 1013.4
20260906081801 74 59 0.0 1.0 0.00 0.00 0.00 80 1013.4
20260906081302 74 59 0.0 0.0 0.00 0.00 0.00 80 1013.4
20260906080801 74 59 0.0 0.0 0.00 0.00 0.00 80 1013.4
20260906080302 75 59 0.0 0.0 0.00 0.00 0.00 78 1013.5
20260906075801 75 59 0.0 0.0 0.00 0.00 0.00 79 1013.5
20260906075301 75 59 0.0 1.0 0.00 0.00 0.00 79 1013.5
20260906074801 75 59 0.0 1.0 0.00 0.00 0.00 79 1013.5
20260906074301 75 59 0.0 0.0 0.00 0.00 0.00 79 1013.6
20260906073801 75 59 0.0 0.0 0.00 0.00 0.00 78 1013.6
20260906073301 75 59 0.0 0.0 0.00 0.00 0.00 78 1013.8
20260906072801 75 59 0.0 0.0 0.00 0.00 0.00 78 1013.8
20260906072306 75 59 0.0 0.0 0.00 0.00 0.00 78 1013.9
20260906071759 75 59 0.0 0.0 0.00 0.00 0.00 78 1013.8
20260906071254 75 59 0.0 0.0 0.00 0.00 0.00 77 1013.8
20260906070747 76 59 0.0 0.0 0.00 0.00 0.00 77 1013.8
20260906070242 76 59 0.0 0.0 0.00 0.00 0.00 77 1013.8
20260906065740 76 59 0.0 0.0 0.00 0.00 0.00 77 1013.8
20260906065238 76 59 0.0 0.0 0.00 0.00 0.00 76 1013.9
20260906064238 76 59 0.0 0.0 0.00 0.00 0.00 75 1013.9
20260906063738 76 59 0.0 0.0 0.00 0.00 0.00 75 1013.9
20260906063238 76 59 0.0 0.0 0.00 0.00 0.00 75 1013.9
20260906062736 76 59 0.0 0.0 0.00 0.00 0.00 75 1013.9
20260906062235 76 59 0.0 1.0 0.00 0.00 0.00 74 1014.0
20260906061732 76 59 0.0 1.0 0.00 0.00 0.00 75 1014.0
20260906061230 77 59 0.0 0.0 0.00 0.00 0.00 74 1013.9
20260906060729 77 59 0.0 0.0 0.00 0.00 0.00 72 1013.9
20260906060230 77 59 0.0 0.0 0.00 0.00 0.00 73 1013.9
20260906055731 77 59 0.0 0.0 0.00 0.00 0.00 74 1013.9
20260906055230 77 59 0.0 1.0 0.00 0.00 0.00 73 1013.9
20260906054729 77 59 0.0 1.0 0.00 0.00 0.00 73 1013.9
20260906054229 77 59 0.0 1.0 0.00 0.00 0.00 73 1013.8
20260906053729 78 59 0.0 1.0 0.00 0.00 0.00 73 1013.9
20260906053229 78 59 0.0 1.0 0.00 0.00 0.00 72 1013.8
20260906052229 78 59 0.0 0.0 0.00 0.00 0.00 71 1013.6
20260906051229 78 59 0.0 0.0 0.00 0.00 0.00 71 1013.8
20260906050229 79 59 0.0 1.0 0.00 0.00 0.00 71 1013.6
20260906045729 79 59 0.0 0.0 0.00 0.00 0.00 70 1013.6
20260906045229 79 59 0.0 0.0 0.00 0.00 0.00 69 1013.6
20260906044229 80 59 0.0 0.0 0.00 0.00 0.00 67 1013.6
20260906043731 80 59 0.0 0.0 0.00 0.00 0.00 67 1013.5
20260906043230 80 59 0.0 0.0 0.00 0.00 0.00 66 1013.5
20260906042730 80 57 0.0 0.0 0.00 0.00 0.00 66 1013.6
20260906042229 80 57 0.0 0.0 0.00 0.00 0.00 66 1013.6
20260906041230 81 57 0.0 0.0 0.00 0.00 0.00 65 1013.6
20260906035728 81 57 0.0 0.0 0.00 0.00 0.00 65 1013.5
20260906035229 81 57 0.0 0.0 0.00 0.00 0.00 65 1013.5
20260906034729 82 58 0.0 0.0 0.00 0.00 0.00 65 1013.6
20260906034229 82 58 0.0 0.0 0.00 0.00 0.00 64 1013.6
20260906033729 82 58 0.0 0.0 0.00 0.00 0.00 64 1013.6
20260906033229 82 58 0.0 0.0 0.00 0.00 0.00 64 1013.6
20260906032729 82 58 0.0 0.0 0.00 0.00 0.00 63 1013.6
20260906032223 83 58 0.0 0.0 0.00 0.00 0.00 62 1013.6
20260906031713 83 58 0.0 1.0 0.00 0.00 0.00 62 1013.6
20260906031211 83 58 0.0 1.0 0.00 0.00 0.00 61 1013.6
20260906030701 83 57 0.0 0.0 0.00 0.00 0.00 61 1013.6
20260906030201 84 57 0.0 0.0 0.00 0.00 0.00 60 1013.6
20260906025701 84 57 0.0 0.0 0.00 0.00 0.00 59 1013.5
20260906025201 84 57 0.0 0.0 0.00 0.00 0.00 59 1013.5
20260906024701 84 58 0.0 0.0 0.00 0.00 0.00 57 1013.5
20260906024201 84 58 0.0 0.0 0.00 0.00 0.00 57 1013.5
20260906023701 85 58 0.0 0.0 0.00 0.00 0.00 57 1013.4
20260906023200 85 58 0.0 0.0 0.00 0.00 0.00 57 1013.4
20260906022659 85 58 0.0 0.0 0.00 0.00 0.00 57 1013.4
20260906022157 85 58 0.0 1.0 0.00 0.00 0.00 57 1013.4
20260906021655 85 58 0.0 1.0 0.00 0.00 0.00 57 1013.2
20260906021155 85 58 0.0 1.0 0.00 0.00 0.00 56 1013.1
20260906020153 85 58 0.0 0.0 0.00 0.00 0.00 56 1012.9
20260906015651 86 58 0.0 1.0 0.00 0.00 0.00 55 1013.0
20260906015149 86 55 0.0 1.0 0.00 0.00 0.00 55 1012.8
20260906014639 87 55 0.0 1.0 0.00 0.00 0.00 54 1012.7
20260906014137 87 43 0.0 1.0 0.00 0.00 0.00 53 1012.6
20260906013133 88 43 0.0 1.0 0.00 0.00 0.00 53 1012.5
20260906012632 88 44 0.0 1.0 0.00 0.00 0.00 51 1012.4
20260906012133 88 44 0.0 1.0 0.00 0.00 0.00 51 1012.3
20260906011633 89 59 0.0 1.0 0.00 0.00 0.00 49 1012.3
20260906011132 90 59 0.0 0.0 0.00 0.00 0.00 49 1012.2
20260906010633 90 59 0.0 0.0 0.00 0.00 0.00 48 1012.1
20260906010129 90 59 0.0 0.0 0.00 0.00 0.00 47 1012.1
20260906005629 91 59 0.0 1.0 0.00 0.00 0.00 47 1012.0
20260906005129 92 59 0.0 1.0 0.00 0.00 0.00 47 1012.0
20260906004130 93 143 0.0 0.0 0.00 0.00 0.00 44 1012.0
20260906003628 93 143 0.0 0.0 0.00 0.00 0.00 44 1012.0
20260906003130 94 143 0.0 0.0 0.00 0.00 0.00 42 1012.0
20260906002630 95 143 0.0 0.0 0.00 0.00 0.00 41 1012.1
20260906002127 95 143 0.0 0.0 0.00 0.00 0.00 40 1012.0
20260906001621 96 143 0.0 1.0 0.00 0.00 0.00 40 1012.0
20260906001114 96 143 0.0 2.0 0.00 0.00 0.00 39 1012.1
20260906000104 96 91 0.0 3.0 0.00 0.00 0.00 38 1012.1
20260905235103 97 140 0.0 3.0 0.00 0.00 0.00 37 1012.1
20260905234604 97 136 0.0 2.0 0.00 0.00 0.00 37 1012.2
20260905234103 98 88 0.0 2.0 0.00 0.00 0.00 37 1012.1
20260905233604 98 108 1.0 3.0 0.00 0.00 0.00 37 1012.1
20260905233104 98 148 1.0 3.0 0.00 0.00 0.00 36 1012.0
20260905232604 98 162 1.0 3.0 0.00 0.00 0.00 35 1012.1
20260905232104 98 122 1.0 3.0 0.00 0.00 0.00 35 1012.1
20260905231605 99 28 1.0 4.0 0.00 0.00 0.00 35 1012.1
20260905231103 99 0 1.0 4.0 0.00 0.00 0.00 34 1012.1
20260905230104 100 42 1.0 4.0 0.00 0.00 0.00 34 1012.0
20260905225604 100 132 1.0 4.0 0.00 0.00 0.00 34 1012.0
20260905225104 101 288 2.0 4.0 0.00 0.00 0.00 34 1012.0
20260905224103 101 148 1.0 5.0 0.00 0.00 0.00 33 1011.9
20260905223603 102 319 1.0 5.0 0.00 0.00 0.00 32 1011.9
20260905223103 102 170 1.0 4.0 0.00 0.00 0.00 32 1011.9
20260905222602 102 146 1.0 5.0 0.00 0.00 0.00 33 1012.0
20260905222103 102 46 2.0 5.0 0.00 0.00 0.00 33 1012.0
20260905221603 103 91 2.0 6.0 0.00 0.00 0.00 32 1012.0
20260905221102 103 145 2.0 6.0 0.00 0.00 0.00 32 1012.0
20260905220603 103 123 1.0 5.0 0.00 0.00 0.00 32 1012.0
20260905215603 103 27 1.0 3.0 0.00 0.00 0.00 32 1012.0
20260905215103 103 69 2.0 6.0 0.00 0.00 0.00 33 1012.1
20260905214102 103 124 2.0 7.0 0.00 0.00 0.00 31 1012.2
20260905213603 104 80 3.0 7.0 0.00 0.00 0.00 31 1012.3
20260905213103 103 182 3.0 8.0 0.00 0.00 0.00 31 1012.3
20260905212602 104 149 2.0 8.0 0.00 0.00 0.00 31 1012.2
20260905212104 104 119 2.0 7.0 0.00 0.00 0.00 30 1012.4
20260905211605 104 285 3.0 7.0 0.00 0.00 0.00 30 1012.4
20260905211104 104 225 2.0 7.0 0.00 0.00 0.00 28 1012.5
20260905210604 104 299 1.0 5.0 0.00 0.00 0.00 29 1012.5
20260905210104 104 83 2.0 5.0 0.00 0.00 0.00 29 1012.6
20260905204603 104 179 3.0 7.0 0.00 0.00 0.00 28 1013.0
20260905204103 104 163 3.0 6.0 0.00 0.00 0.00 28 1012.9
20260905203103 105 115 2.0 6.0 0.00 0.00 0.00 28 1013.1
20260905202557 105 186 2.0 6.0 0.00 0.00 0.00 29 1013.2
20260905202056 105 147 2.0 7.0 0.00 0.00 0.00 29 1013.3
20260905201056 104 146 2.0 5.0 0.00 0.00 0.00 30 1013.4
20260905200556 103 198 2.0 4.0 0.00 0.00 0.00 28 1013.5
20260905200054 103 146 2.0 5.0 0.00 0.00 0.00 31 1013.6
20260905195554 102 32 2.0 5.0 0.00 0.00 0.00 32 1013.8
20260905195054 102 86 2.0 5.0 0.00 0.00 0.00 32 1013.8
20260905194554 102 5 1.0 4.0 0.00 0.00 0.00 34 1013.9
20260905193552 102 48 2.0 5.0 0.00 0.00 0.00 34 1014.0
20260905193053 103 90 2.0 4.0 0.00 0.00 0.00 34 1014.0
20260905192553 103 321 2.0 4.0 0.00 0.00 0.00 35 1014.0
20260905192050 103 20 2.0 8.0 0.00 0.00 0.00 34 1014.2